QPF
0.00 0.00 0.00 0.00 0.01 0.03 0.00 0.00 0.00 0.04 0.14 0.17 0.11 0.06 0.06 0.16 0.15 0.01 0.08 0.05 0.05 0.06 0.09 0.10 0.14 0.13 0.08 0.02 0.03 0.06 0.04 0.02 0.04 0.07 0.00 0.00 0.00 0.01 0.00 0.00 0.03 0.04 0.01
0.00 0.00 0.00 0.00 0.00 0.00 0.00 0.00 0.06 0.03 0.04 0.06 0.06 0.10 0.04 0.11 0.15 0.03 0.02 0.03 0.04 0.06 0.10 0.11 0.13 0.13 0.13 0.09 0.06 0.09 0.12 0.09 0.09 0.02 0.00 0.00 0.00 0.00 0.00 0.00 0.05 0.03 0.10
0.00 0.00 0.00 0.00 0.00 0.00 0.00 0.02 0.00 0.00 0.00 0.00 0.03 0.09 0.09 0.13 0.05 0.03 0.00 0.00 0.00 0.00 0.01 0.04 0.10 0.14 0.15 0.11 0.08 0.08 0.04 0.09 0.11 0.05 0.00 0.00 0.00 0.01 0.02 0.01 0.00 0.05 0.12
0.00 0.00 0.00 0.00 0.00 0.00 0.00 0.00 0.00 0.00 0.00 0.00 0.00 0.06 0.14 0.06 0.00 0.00 0.00 0.00 0.00 0.00 0.00 0.02 0.05 0.07 0.14 0.15 0.16 0.10 0.03 0.06 0.08 0.10 0.01 0.00 0.02 0.05 0.07 0.06 0.06 0.09 0.14
0.00 0.00 0.00 0.00 0.00 0.00 0.00 0.00 0.00 0.00 0.00 0.00 0.01 0.08 0.03 0.00 0.00 0.00 0.00 0.00 0.00 0.00 0.00 0.04 0.06 0.07 0.07 0.09 0.15 0.14 0.07 0.03 0.07 0.10 0.06 0.04 0.01 0.03 0.06 0.13 0.08 0.03 0.02
0.00 0.00 0.00 0.00 0.00 0.00 0.00 0.00 0.00 0.00 0.00 0.01 0.04 0.02 0.00 0.00 0.00 0.00 0.00 0.00 0.00 0.01 0.04 0.04 0.05 0.08 0.12 0.12 0.15 0.19 0.09 0.03 0.03 0.12 0.11 0.09 0.03 0.03 0.05 0.15 0.07 0.00 0.00
0.00 0.00 0.00 0.00 0.00 0.00 0.00 0.00 0.00 0.01 0.03 0.03 0.00 0.00 0.00 0.00 0.00 0.00 0.00 0.00 0.00 0.05 0.08 0.02 0.04 0.06 0.16 0.18 0.16 0.11 0.08 0.03 0.00 0.05 0.09 0.10 0.02 0.04 0.07 0.09 0.03 0.00 0.00
0.00 0.00 0.00 0.00 0.00 0.00 0.00 0.00 0.00 0.00 0.01 0.00 0.00 0.00 0.00 0.00 0.00 0.00 0.00 0.00 0.02 0.08 0.11 0.05 0.02 0.03 0.09 0.10 0.05 0.04 0.07 0.05 0.03 0.05 0.11 0.11 0.03 0.01 0.02 0.07 0.10 0.05 0.00
0.00 0.00 0.00 0.00 0.00 0.00 0.00 0.00 0.00 0.00 0.00 0.00 0.00 0.00 0.00 0.00 0.00 0.00 0.00 0.00 0.02 0.04 0.10 0.08 0.05 0.04 0.08 0.09 0.03 0.05 0.11 0.17 0.16 0.16 0.16 0.14 0.09 0.03 0.02 0.01 0.04 0.04 0.01
0.00 0.00 0.00 0.00 0.00 0.00 0.00 0.00 0.00 0.00 0.00 0.00 0.00 0.00 0.00 0.00 0.00 0.00 0.00 0.00 0.01 0.02 0.01 0.02 0.02 0.06 0.15 0.24 0.23 0.20 0.24 0.19 0.21 0.20 0.15 0.11 0.11 0.08 0.07 0.03 0.01 0.05 0.05
0.00 0.00 0.00 0.00 0.00 0.00 0.00 0.00 0.00 0.00 0.00 0.00 0.00 0.00 0.00 0.00 0.00 0.00 0.00 0.00 0.00 0.00 0.01 0.00 0.00 0.00 0.07 0.09 0.19 0.15 0.05 0.11 0.08 0.02 0.03 0.05 0.06 0.07 0.09 0.09 0.09 0.10 0.15
0.00 0.00 0.00 0.00 0.00 0.00 0.00 0.00 0.00 0.00 0.00 0.00 0.00 0.00 0.00 0.00 0.00 0.00 0.00 0.00 0.00 0.00 0.00 0.00 0.00 0.00 0.00 0.01 0.01 0.00 0.00 0.00 0.01 0.01 0.02 0.02 0.02 0.05 0.08 0.08 0.10 0.13 0.16
0.00 0.00 0.00 0.00 0.00 0.00 0.00 0.00 0.00 0.00 0.00 0.00 0.00 0.00 0.00 0.00 0.00 0.00 0.00 0.00 0.00 0.00 0.00 0.00 0.00 0.00 0.01 0.00 0.00 0.00 0.00 0.00 0.00 0.01 0.02 0.01 0.02 0.02 0.02 0.02 0.03 0.04 0.04
0.00 0.00 0.00 0.00 0.00 0.00 0.00 0.00 0.00 0.00 0.00 0.00 0.00 0.00 0.00 0.00 0.00 0.00 0.00 0.00 0.00 0.00 0.00 0.00 0.00 0.00 0.00 0.00 0.00 0.00 0.00 0.00 0.00 0.00 0.00 0.00 0.00 0.00 0.00 0.00 0.00 0.00 0.00
0.00 0.00 0.00 0.00 0.00 0.00 0.00 0.00 0.00 0.00 0.00 0.00 0.00 0.00 0.00 0.00 0.00 0.00 0.00 0.00 0.00 0.00 0.00 0.00 0.00 0.00 0.00 0.00 0.00 0.00 0.00 0.00 0.00 0.00 0.00 0.00 0.00 0.00 0.00 0.00 0.00 0.00 0.00
0.00 0.00 0.00 0.00 0.00 0.00 0.00 0.00 0.00 0.00 0.00 0.00 0.00 0.00 0.00 0.00 0.00 0.00 0.00 0.00 0.00 0.00 0.00 0.00 0.00 0.00 0.00 0.00 0.00 0.00 0.00 0.00 0.00 0.00 0.00 0.00 0.00 0.00 0.00 0.00 0.00 0.00 0.00
0.00 0.00 0.00 0.00 0.00 0.00 0.00 0.00 0.00 0.00 0.00 0.01 0.01 0.00 0.01 0.03 0.00 0.00 0.00 0.00 0.00 0.00 0.00 0.00 0.00 0.00 0.00 0.00 0.00 0.00 0.00 0.00 0.00 0.00 0.00 0.00 0.00 0.00 0.00 0.00 0.00 0.00 0.00
0.00 0.00 0.00 0.00 0.00 0.00 0.00 0.00 0.00 0.00 0.00 0.00 0.00 0.00 0.01 0.02 0.03 0.00 0.00 0.00 0.00 0.00 0.00 0.00 0.00 0.00 0.00 0.00 0.00 0.00 0.00 0.00 0.00 0.00 0.00 0.00 0.00 0.00 0.00 0.00 0.00 0.00 0.00
0.00 0.00 0.00 0.00 0.00 0.00 0.00 0.00 0.00 0.00 0.00 0.00 0.00 0.00 0.00 0.01 0.01 0.01 0.00 0.00 0.00 0.00 0.00 0.00 0.00 0.00 0.00 0.00 0.00 0.00 0.00 0.00 0.00 0.00 0.00 0.00 0.00 0.00 0.00 0.00 0.00 0.00 0.00
0.03 0.01 0.00 0.00 0.00 0.00 0.00 0.00 0.00 0.00 0.00 0.00 0.00 0.00 0.00 0.00 0.00 0.00 0.00 0.01 0.00 0.00 0.00 0.00 0.00 0.00 0.00 0.00 0.00 0.00 0.00 0.00 0.00 0.00 0.00 0.00 0.00 0.00 0.00 0.00 0.00 0.00 0.00
0.01 0.01 0.00 0.00 0.00 0.00 0.00 0.00 0.00 0.00 0.00 0.00 0.00 0.00 0.00 0.00 0.00 0.00 0.01 0.02 0.00 0.00 0.00 0.00 0.00 0.00 0.00 0.00 0.00 0.00 0.00 0.00 0.00 0.00 0.00 0.00 0.00 0.00 0.00 0.00 0.00 0.00 0.00
0.00 0.01 0.00 0.00 0.00 0.00 0.00 0.00 0.00 0.00 0.00 0.00 0.00 0.00 0.00 0.00 0.00 0.00 0.01 0.01 0.00 0.00 0.00 0.00 0.00 0.00 0.00 0.00 0.00 0.00 0.00 0.00 0.00 0.00 0.00 0.00 0.00 0.00 0.00 0.00 0.00 0.00 0.00
0.01 0.00 0.00 0.00 0.00 0.00 0.00 0.00 0.00 0.00 0.00 0.00 0.00 0.00 0.00 0.00 0.00 0.00 0.00 0.00 0.00 0.00 0.00 0.00 0.00 0.00 0.00 0.00 0.00 0.00 0.00 0.00 0.00 0.00 0.00 0.00 0.00 0.00 0.00 0.00 0.00 0.00 0.00
0.01 0.01 0.00 0.00 0.00 0.00 0.00 0.00 0.00 0.00 0.00 0.00 0.00 0.00 0.00 0.00 0.00 0.00 0.00 0.00 0.00 0.00 0.00 0.00 0.00 0.00 0.00 0.00 0.00 0.00 0.00 0.00 0.00 0.00 0.00 0.00 0.00 0.00 0.00 0.00 0.00 0.00 0.00
0.05 0.04 0.03 0.02 0.01 0.00 0.00 0.00 0.00 0.00 0.00 0.00 0.00 0.00 0.00 0.00 0.00 0.00 0.00 0.00 0.00 0.00 0.00 0.00 0.00 0.00 0.00 0.00 0.00 0.00 0.00 0.00 0.00 0.00 0.00 0.00 0.00 0.00 0.00 0.00 0.00 0.00 0.00
0.11 0.06 0.02 0.00 0.00 0.00 0.00 0.00 0.00 0.00 0.00 0.00 0.00 0.00 0.00 0.00 0.00 0.00 0.00 0.00 0.00 0.00 0.00 0.00 0.00 0.00 0.00 0.00 0.00 0.00 0.00 0.00 0.00 0.00 0.00 0.00 0.00 0.00 0.00 0.00 0.00 0.00 0.00
MSLP
1006.34 1007.28 1007.95 1008.58 1009.77 1010.93 1011.52 1012.35 1013.01 1013.70 1014.07 1013.89 1013.90 1013.65 1013.86 1014.32 1014.33 1013.81 1013.01 1013.84 1014.05 1014.09 1014.33 1014.30 1014.48 1014.54 1014.83 1014.06 1013.77 1013.97 1013.93 1014.06 1014.13 1014.88 1014.60 1014.29 1014.12 1014.52 1015.02 1015.22 1015.64 1015.86 1015.77
1006.52 1007.53 1008.40 1009.22 1010.71 1011.38 1011.83 1012.45 1013.38 1014.00 1014.07 1014.10 1013.78 1013.86 1013.84 1013.64 1014.06 1013.46 1013.47 1013.91 1014.20 1014.05 1014.28 1014.44 1014.34 1014.44 1014.45 1014.41 1014.26 1014.36 1014.61 1014.88 1015.10 1014.90 1014.44 1013.47 1012.96 1012.96 1013.69 1014.64 1015.08 1015.39 1015.25
1006.60 1007.85 1008.86 1009.72 1010.59 1011.37 1011.74 1012.41 1013.63 1013.94 1014.28 1014.09 1013.88 1014.13 1013.85 1013.75 1013.43 1013.20 1013.06 1013.17 1013.63 1013.76 1013.90 1013.81 1013.85 1014.09 1014.26 1014.10 1014.13 1014.29 1014.54 1014.71 1014.88 1014.88 1014.03 1013.15 1012.64 1012.46 1012.95 1014.26 1014.46 1014.55 1015.18
1006.34 1007.53 1008.75 1009.94 1010.44 1010.98 1011.41 1011.95 1013.23 1013.78 1014.32 1014.25 1014.33 1013.91 1013.55 1013.31 1012.97 1013.15 1013.08 1013.57 1013.25 1013.49 1013.54 1013.56 1013.44 1013.61 1013.73 1013.76 1013.85 1014.02 1014.14 1014.54 1014.71 1014.83 1014.24 1013.77 1013.54 1013.67 1013.89 1014.20 1014.52 1014.61 1015.03
1005.90 1007.21 1008.47 1009.82 1010.24 1010.93 1011.60 1012.05 1012.99 1013.57 1013.92 1013.99 1013.80 1013.78 1013.72 1013.09 1013.28 1013.37 1013.46 1013.22 1012.78 1012.65 1012.99 1013.09 1013.16 1013.27 1013.35 1013.29 1013.57 1013.67 1013.90 1013.99 1014.16 1014.47 1014.29 1013.78 1013.72 1014.18 1014.60 1014.52 1014.60 1014.35 1014.31
1005.78 1007.08 1008.58 1009.68 1010.36 1010.92 1011.63 1012.08 1012.83 1013.36 1013.72 1013.89 1013.95 1014.07 1013.91 1013.84 1013.59 1013.64 1013.13 1012.84 1012.34 1012.85 1013.14 1012.87 1012.84 1012.99 1013.07 1013.14 1013.11 1013.35 1013.61 1013.88 1014.03 1014.53 1014.52 1014.47 1013.92 1013.69 1014.42 1014.91 1014.92 1014.70 1014.41
1005.85 1007.56 1008.77 1009.62 1010.47 1011.10 1011.54 1012.19 1012.68 1013.26 1013.56 1013.94 1013.92 1014.12 1014.16 1014.01 1013.49 1013.56 1013.16 1013.25 1012.67 1013.19 1013.45 1013.11 1012.86 1012.80 1012.91 1012.95 1013.02 1013.13 1013.35 1013.73 1014.02 1014.30 1014.34 1014.28 1013.76 1013.60 1014.30 1014.69 1014.76 1014.66 1014.63
1005.79 1007.13 1008.47 1009.52 1010.23 1010.85 1011.51 1011.89 1012.35 1012.79 1013.37 1013.59 1013.99 1014.19 1014.07 1013.54 1013.18 1013.64 1013.83 1013.49 1013.58 1013.71 1013.66 1013.38 1012.95 1012.69 1012.64 1012.66 1012.72 1012.81 1012.96 1013.15 1013.61 1014.02 1013.98 1014.03 1013.86 1013.01 1013.85 1014.35 1014.76 1014.83 1014.45
1005.46 1006.64 1008.12 1009.27 1009.84 1010.55 1011.15 1011.61 1012.22 1012.50 1012.82 1013.35 1013.90 1014.00 1014.06 1014.05 1014.10 1014.13 1014.07 1013.77 1014.36 1014.05 1013.88 1013.61 1013.22 1012.84 1012.78 1012.78 1012.66 1012.62 1012.78 1013.20 1013.54 1013.70 1013.86 1013.86 1013.84 1013.27 1012.96 1013.38 1014.40 1014.62 1014.69
1005.32 1006.45 1007.68 1008.77 1009.48 1010.26 1011.12 1011.63 1012.12 1012.26 1012.57 1013.10 1013.52 1013.72 1013.86 1014.03 1014.19 1014.16 1014.36 1014.59 1014.55 1014.49 1014.32 1014.12 1013.62 1013.46 1013.07 1012.84 1012.55 1012.73 1012.78 1012.99 1013.30 1013.56 1013.69 1013.79 1013.91 1013.78 1013.89 1013.78 1013.67 1014.53 1014.79
1005.13 1006.23 1007.24 1008.34 1009.04 1009.73 1010.00 1011.11 1011.60 1012.12 1012.51 1012.66 1013.29 1013.63 1013.56 1013.69 1014.23 1014.19 1014.50 1014.84 1014.87 1014.76 1014.68 1014.63 1014.29 1013.87 1013.55 1013.28 1013.08 1013.25 1013.24 1013.50 1013.54 1013.86 1014.03 1014.05 1013.95 1013.95 1013.99 1014.12 1014.35 1014.55 1014.97
1005.22 1006.32 1007.18 1008.15 1008.89 1009.34 1009.95 1010.72 1011.33 1011.78 1012.26 1012.62 1013.04 1013.48 1013.54 1013.73 1014.51 1014.45 1014.63 1015.00 1015.04 1015.01 1014.96 1015.03 1014.76 1014.48 1014.26 1014.03 1013.93 1014.13 1014.30 1014.30 1014.44 1014.55 1014.49 1014.51 1014.35 1014.27 1014.38 1014.47 1014.52 1014.78 1014.90
1005.79 1006.61 1007.54 1008.51 1008.96 1009.48 1010.10 1010.64 1011.16 1011.43 1012.02 1012.46 1012.74 1013.19 1013.26 1013.66 1014.58 1014.68 1015.03 1015.08 1015.16 1015.17 1015.12 1015.26 1015.21 1014.95 1014.83 1014.87 1014.85 1014.97 1015.19 1015.32 1015.46 1015.51 1015.63 1015.46 1015.19 1015.41 1015.37 1015.36 1015.23 1015.25 1015.19
1006.26 1007.14 1008.19 1008.87 1009.56 1010.47 1010.84 1010.90 1010.92 1011.33 1011.74 1011.97 1012.40 1012.91 1013.14 1013.55 1014.37 1014.66 1014.85 1015.27 1015.40 1015.28 1015.37 1015.43 1015.46 1015.40 1015.45 1015.47 1015.49 1015.50 1015.72 1015.99 1016.20 1016.37 1016.44 1016.35 1016.26 1016.21 1016.08 1016.04 1015.92 1015.83 1015.85
1006.48 1007.57 1008.59 1009.46 1010.19 1010.67 1010.70 1010.80 1011.04 1011.35 1011.66 1012.13 1012.22 1012.58 1012.99 1013.46 1014.35 1014.57 1014.87 1015.43 1015.63 1015.66 1015.67 1015.80 1015.75 1015.77 1015.96 1016.31 1016.03 1016.04 1016.14 1016.39 1016.66 1016.93 1017.13 1017.19 1017.19 1017.14 1016.98 1016.64 1016.80 1016.55 1016.57
1006.64 1007.86 1009.02 1009.93 1010.18 1010.31 1010.55 1010.88 1011.16 1011.50 1011.67 1012.18 1012.37 1012.38 1013.11 1013.44 1014.27 1014.54 1015.16 1015.62 1015.97 1016.12 1016.15 1016.09 1016.24 1016.37 1016.83 1017.28 1016.94 1016.61 1016.63 1016.70 1016.66 1016.75 1016.99 1017.20 1017.32 1017.51 1017.44 1017.41 1017.44 1017.38 1017.23
1006.82 1008.18 1009.20 1009.93 1010.25 1010.52 1010.83 1011.22 1011.56 1012.24 1012.53 1012.88 1012.55 1012.56 1012.97 1013.63 1014.17 1014.47 1014.94 1015.81 1016.30 1016.43 1016.43 1016.68 1016.85 1017.15 1017.72 1018.00 1017.77 1017.33 1017.07 1017.08 1017.18 1017.25 1017.17 1017.18 1017.61 1017.58 1017.69 1017.67 1017.67 1017.89 1017.93
1006.96 1008.58 1009.57 1010.17 1010.40 1010.91 1011.53 1012.15 1012.65 1012.82 1012.92 1013.38 1013.57 1013.56 1013.74 1013.83 1014.01 1014.52 1015.06 1016.00 1016.52 1016.77 1016.83 1017.10 1017.41 1017.82 1018.43 1018.59 1018.41 1018.00 1017.48 1017.44 1017.49 1017.61 1017.75 1017.83 1018.10 1018.42 1018.05 1018.21 1018.47 1018.77 1018.89
1007.27 1008.82 1009.88 1010.81 1011.65 1011.98 1012.49 1012.62 1012.91 1013.12 1013.34 1013.88 1014.56 1014.71 1014.62 1014.40 1014.50 1014.80 1015.46 1016.06 1016.66 1017.03 1017.17 1017.42 1017.80 1018.06 1018.77 1019.05 1018.96 1018.47 1017.99 1018.17 1018.30 1018.70 1018.93 1018.68 1018.95 1019.15 1018.82 1018.68 1018.86 1019.07 1019.45
1008.93 1009.96 1011.16 1012.14 1012.96 1013.47 1013.37 1013.26 1013.62 1013.87 1014.59 1015.21 1015.51 1015.63 1015.75 1015.12 1015.06 1015.23 1015.70 1016.23 1016.82 1017.18 1017.37 1017.74 1018.34 1018.77 1018.93 1019.42 1019.30 1018.99 1018.19 1018.32 1018.65 1019.09 1019.62 1020.00 1020.07 1019.82 1019.37 1018.96 1019.06 1019.12 1019.13
1010.08 1011.15 1011.94 1012.53 1013.46 1013.98 1013.99 1014.08 1014.65 1015.52 1015.94 1016.15 1016.27 1016.54 1016.55 1016.26 1015.99 1016.03 1016.35 1016.63 1016.85 1017.43 1017.80 1018.40 1019.09 1019.71 1020.02 1019.92 1019.86 1019.40 1018.60 1018.53 1018.38 1019.01 1020.04 1020.65 1020.64 1020.45 1020.09 1019.73 1019.61 1019.83 1019.85
1011.38 1011.78 1012.53 1013.50 1014.11 1014.38 1014.51 1014.93 1015.93 1016.42 1016.67 1016.85 1016.92 1017.23 1017.42 1017.43 1017.42 1017.32 1017.48 1017.62 1017.54 1017.98 1018.56 1019.04 1019.23 1020.43 1021.04 1020.97 1020.65 1020.37 1020.14 1019.57 1019.70 1020.28 1020.91 1021.66 1021.44 1021.18 1020.88 1020.57 1020.95 1020.65 1020.32
1012.11 1012.37 1013.34 1014.44 1014.98 1015.23 1015.37 1015.85 1016.65 1016.88 1017.09 1017.29 1017.52 1017.96 1018.27 1018.53 1018.72 1018.71 1018.74 1018.95 1019.27 1019.25 1019.77 1020.23 1020.79 1021.24 1021.73 1021.78 1021.49 1021.34 1021.18 1020.88 1020.68 1021.06 1021.76 1021.74 1021.88 1021.25 1021.20 1021.05 1021.02 1020.61 1019.78
1012.70 1013.25 1013.77 1014.67 1015.34 1015.85 1016.09 1016.40 1016.85 1017.06 1017.26 1017.64 1018.15 1018.69 1019.01 1019.52 1019.71 1019.79 1019.83 1020.11 1020.24 1020.49 1020.72 1021.01 1021.32 1021.64 1021.70 1022.09 1022.16 1022.03 1021.82 1021.65 1021.70 1021.98 1022.06 1021.85 1021.64 1021.22 1021.01 1021.01 1020.56 1020.11 1020.02
1013.73 1014.06 1014.65 1015.31 1016.01 1016.24 1016.40 1016.71 1017.07 1017.22 1017.43 1017.74 1018.19 1018.76 1019.47 1019.98 1020.51 1020.90 1021.07 1021.19 1021.57 1021.36 1021.37 1021.48 1021.65 1021.69 1022.11 1022.53 1022.59 1022.47 1022.12 1021.84 1021.92 1021.89 1021.81 1021.57 1020.38 1020.07 1020.15 1020.30 1020.45 1020.37 1020.30
1014.59 1014.89 1015.27 1015.84 1016.30 1016.48 1016.54 1017.02 1017.23 1017.31 1017.29 1017.51 1017.91 1018.57 1019.10 1019.66 1020.19 1020.82 1021.52 1022.25 1022.23 1022.15 1022.20 1022.11 1022.15 1022.34 1022.53 1022.67 1022.73 1022.59 1022.36 1022.30 1022.47 1021.99 1020.99 1020.31 1020.05 1019.82 1019.81 1019.95 1020.22 1020.51 1020.79
Thickness
5832 5826 5820 5816 5805 5793 5783 5772 5761 5752 5747 5748 5750 5755 5753 5751 5752 5756 5762 5755 5752 5749 5746 5744 5743 5741 5739 5747 5751 5747 5746 5746 5750 5742 5746 5753 5760 5758 5754 5753 5751 5751 5753
5823 5818 5812 5806 5792 5785 5780 5770 5757 5746 5740 5743 5752 5755 5756 5759 5754 5758 5756 5751 5747 5745 5741 5739 5738 5737 5738 5738 5739 5738 5733 5733 5736 5734 5739 5741 5755 5763 5761 5755 5752 5751 5754
5817 5810 5804 5797 5792 5782 5779 5771 5755 5748 5741 5745 5751 5751 5757 5756 5756 5758 5758 5755 5747 5743 5740 5739 5738 5736 5734 5735 5736 5735 5731 5726 5729 5734 5737 5737 5738 5752 5759 5750 5752 5754 5750
5822 5814 5804 5792 5788 5784 5782 5774 5759 5753 5746 5746 5746 5750 5749 5749 5757 5755 5756 5748 5747 5744 5742 5740 5738 5736 5734 5734 5734 5733 5731 5726 5721 5725 5735 5741 5743 5732 5732 5743 5744 5749 5745
5824 5813 5804 5793 5791 5785 5777 5773 5763 5755 5751 5749 5751 5750 5748 5756 5754 5753 5748 5749 5751 5749 5744 5741 5739 5736 5734 5735 5732 5730 5727 5728 5726 5724 5727 5734 5738 5735 5727 5725 5732 5745 5748
5823 5815 5805 5796 5788 5784 5776 5771 5763 5758 5753 5751 5750 5748 5747 5746 5746 5745 5747 5750 5752 5747 5742 5741 5739 5736 5734 5731 5731 5729 5726 5723 5725 5722 5723 5722 5727 5730 5727 5721 5725 5730 5738
5819 5806 5796 5791 5783 5777 5775 5770 5763 5756 5755 5750 5749 5747 5745 5745 5748 5745 5747 5743 5745 5740 5737 5739 5738 5735 5732 5730 5728 5726 5724 5721 5720 5719 5722 5725 5730 5734 5729 5725 5724 5726 5731
5818 5808 5798 5790 5783 5778 5773 5770 5766 5760 5755 5753 5748 5746 5748 5751 5752 5746 5741 5741 5738 5736 5736 5735 5737 5735 5733 5731 5729 5726 5725 5725 5722 5720 5724 5725 5728 5738 5731 5726 5720 5717 5725
5818 5810 5799 5789 5784 5778 5772 5769 5764 5761 5758 5754 5749 5747 5747 5746 5742 5741 5739 5739 5732 5733 5733 5733 5733 5733 5731 5729 5729 5727 5724 5723 5721 5722 5723 5724 5725 5733 5738 5734 5725 5718 5711
5817 5809 5800 5790 5784 5778 5771 5767 5763 5760 5758 5755 5750 5749 5748 5746 5743 5740 5735 5730 5730 5729 5728 5727 5729 5727 5729 5729 5728 5726 5725 5724 5723 5722 5722 5722 5723 5725 5725 5727 5729 5721 5715
5816 5809 5801 5793 5785 5779 5775 5767 5763 5760 5757 5757 5752 5749 5750 5749 5742 5738 5733 5728 5727 5727 5725 5722 5723 5724 5725 5726 5726 5723 5723 5720 5720 5719 5718 5718 5721 5720 5721 5721 5720 5717 5713
5817 5809 5801 5792 5782 5775 5769 5764 5762 5760 5758 5757 5753 5749 5748 5747 5738 5734 5733 5728 5725 5724 5723 5720 5720 5720 5720 5721 5720 5716 5714 5713 5712 5711 5711 5710 5713 5713 5714 5714 5713 5711 5711
5810 5805 5797 5784 5779 5769 5758 5760 5761 5762 5759 5756 5753 5749 5747 5745 5734 5733 5730 5728 5725 5722 5722 5719 5717 5717 5717 5715 5714 5712 5708 5705 5702 5702 5700 5700 5702 5699 5700 5701 5702 5704 5704
5804 5798 5788 5780 5772 5758 5752 5758 5762 5764 5760 5758 5755 5748 5747 5745 5736 5732 5730 5725 5723 5722 5720 5718 5716 5715 5713 5711 5710 5708 5704 5701 5698 5695 5693 5692 5692 5692 5691 5691 5692 5694 5693
5799 5792 5783 5774 5766 5759 5760 5762 5763 5762 5759 5755 5754 5751 5750 5745 5736 5732 5728 5723 5720 5718 5717 5714 5714 5712 5709 5704 5705 5704 5701 5697 5694 5690 5687 5685 5684 5683 5683 5684 5682 5683 5681
5796 5789 5780 5770 5768 5767 5766 5764 5762 5759 5760 5754 5751 5753 5746 5742 5733 5730 5723 5719 5715 5713 5712 5710 5708 5706 5701 5693 5696 5699 5696 5695 5694 5692 5689 5685 5682 5678 5677 5676 5674 5674 5673
5793 5784 5777 5772 5770 5767 5766 5760 5759 5755 5751 5745 5750 5749 5743 5736 5731 5728 5723 5715 5709 5707 5706 5703 5701 5697 5691 5686 5687 5691 5691 5689 5686 5684 5683 5682 5677 5675 5672 5669 5667 5663 5661
5792 5780 5775 5771 5771 5767 5761 5754 5750 5748 5745 5740 5738 5738 5734 5732 5730 5725 5719 5710 5704 5700 5699 5697 5693 5688 5682 5678 5678 5680 5685 5682 5680 5677 5674 5672 5667 5662 5664 5660 5655 5649 5646
5791 5781 5774 5766 5759 5756 5752 5749 5745 5744 5741 5734 5727 5725 5725 5726 5723 5720 5713 5707 5699 5695 5693 5691 5686 5684 5677 5671 5669 5671 5675 5670 5667 5662 5657 5659 5654 5648 5650 5650 5644 5640 5633
5774 5768 5760 5752 5745 5740 5742 5741 5737 5735 5727 5720 5718 5716 5714 5718 5717 5714 5708 5702 5695 5690 5688 5684 5677 5672 5671 5662 5660 5660 5667 5661 5656 5651 5645 5638 5637 5637 5638 5640 5635 5631 5629
5759 5754 5750 5744 5737 5734 5734 5731 5726 5716 5713 5711 5710 5706 5704 5706 5707 5704 5699 5695 5692 5684 5679 5672 5665 5658 5653 5654 5651 5652 5658 5655 5653 5645 5635 5629 5626 5626 5626 5625 5624 5617 5614
5744 5745 5738 5730 5728 5728 5726 5720 5710 5707 5704 5701 5700 5697 5694 5692 5690 5688 5685 5681 5681 5675 5668 5663 5659 5647 5640 5639 5640 5639 5636 5639 5635 5628 5622 5614 5613 5614 5612 5612 5603 5601 5599
5734 5735 5726 5716 5714 5714 5713 5707 5700 5698 5694 5690 5688 5685 5682 5678 5675 5673 5672 5668 5661 5662 5654 5645 5637 5632 5626 5626 5625 5624 5623 5620 5620 5614 5605 5603 5601 5603 5601 5597 5594 5593 5597
5725 5721 5719 5711 5705 5703 5702 5700 5695 5693 5688 5683 5678 5673 5669 5664 5661 5659 5658 5654 5650 5644 5637 5633 5630 5624 5622 5617 5614 5612 5609 5606 5602 5596 5594 5593 5593 5593 5593 5589 5588 5590 5586
5710 5709 5705 5700 5694 5694 5693 5691 5688 5686 5683 5679 5674 5668 5660 5654 5647 5642 5640 5638 5632 5632 5630 5626 5621 5619 5613 5606 5602 5600 5598 5596 5592 5588 5586 5585 5593 5592 5588 5584 5579 5578 5576
5697 5695 5692 5689 5686 5685 5683 5680 5680 5679 5678 5674 5670 5662 5655 5649 5643 5636 5628 5621 5619 5617 5613 5610 5607 5603 5599 5594 5589 5587 5584 5581 5577 5579 5585 5587 5584 5583 5581 5577 5572 5568 5563